{"data":{"norad_id":63789,"epoch":"2026-05-24T14:24:00.756864Z","epoch_age_seconds":120080,"freshness":"FRESH","line1":"1 63789U 25091Q   26144.60000876  .00016626  00000+0  61211-3 0  9998","line2":"2 63789  43.0038 343.6553 0001188 280.1603  79.9114 15.27592239 60518","mean_motion":15.27592239,"eccentricity":0.0001188,"inclination_deg":43.0038,"raan_deg":343.6553,"arg_perigee_deg":280.1603,"mean_anomaly_deg":79.9114,"bstar":0.00061211,"rev_number":6051,"period_min":94.26599345272,"perigee_km":482.19734376092,"apogee_km":483.82755286984,"semimajor_km":6861.1494483154,"source":"CELESTRAK","updated_at":"2026-05-25T13:38:20.135708Z"}}